This is the latest recevied weather packets stored in our database for station/object GBTWP-2. If no packets are shown the sender has not sent any weather packets the latest 10 day(s).
| Time | Temp. | Humidity | Pressure | Rain* | Wind** | Luminosity | Snow |
|---|---|---|---|---|---|---|---|
| 1777515602 | 6.67° C | 80% | 1015.9 hPa | 0 mm | - | 0 W/m² | - |
| 1777514402 | 7.22° C | 83% | 1015.6 hPa | 0 mm | - | 0 W/m² | - |
| 1777514102 | 7.22° C | 82% | 1015.6 hPa | 0 mm | - | 0 W/m² | - |
| 1777513802 | 7.22° C | 83% | 1015.4 hPa | 0 mm | - | 0 W/m² | - |
| 1777513502 | 7.22° C | 83% | 1015.2 hPa | 0 mm | - | 0 W/m² | - |
| 1777513202 | 7.22° C | 82% | 1015.4 hPa | 0 mm | - | 0 W/m² | - |
| 1777512002 | 7.22° C | 82% | 1015.3 hPa | 0 mm | - | 0 W/m² | - |
| 1777511702 | 7.22° C | 82% | 1015.2 hPa | 0 mm | - | 0 W/m² | - |
| 1777511402 | 7.22° C | 82% | 1015 hPa | 0 mm | - | 0 W/m² | - |
| 1777511102 | 7.22° C | 82% | 1015.2 hPa | 0 mm | - | 0 W/m² | - |
| 1777510502 | 7.22° C | 81% | 1015 hPa | 0 mm | - | 0 W/m² | - |
| 1777510202 | 7.22° C | 81% | 1015 hPa | 0 mm | - | 0 W/m² | - |
| 1777509902 | 7.22° C | 82% | 1014.9 hPa | 0 mm | - | 0 W/m² | - |
| 1777509602 | 7.22° C | 83% | 1014.9 hPa | 0 mm | - | 0 W/m² | - |
| 1777509302 | 7.22° C | 83% | 1014.6 hPa | 0 mm | - | 1 W/m² | - |
| 1777509002 | 7.22° C | 83% | 1014.7 hPa | 0 mm | - | 1 W/m² | - |
| 1777508402 | 7.22° C | 83% | 1014.6 hPa | 0 mm | - | 1 W/m² | - |
| 1777507802 | 7.78° C | 82% | 1014.4 hPa | 0 mm | - | 6 W/m² | - |
| 1777507502 | 7.78° C | 82% | 1014.6 hPa | 1.78 mm | - | 7 W/m² | - |
| 1777507202 | 7.78° C | 81% | 1014.4 hPa | 1.78 mm | - | 7 W/m² | - |
| 1777506902 | 7.78° C | 80% | 1014.5 hPa | 0 mm | - | 6 W/m² | - |
| 1777506602 | 7.78° C | 79% | 1014.3 hPa | 0 mm | - | 6 W/m² | - |
| 1777506302 | 7.78° C | 78% | 1014.4 hPa | 0 mm | - | 8 W/m² | - |
| 1777505402 | 7.78° C | 79% | 1014.2 hPa | 0 mm | - | 9 W/m² | - |
| 1777505102 | 8.33° C | 80% | 1014 hPa | 0 mm | - | 19 W/m² | - |
* Rain latest hour (hover to see other rain measurements)
** Current wind speed in m/s (hover to see current wind gust speed)